This is the latest recevied weather packets stored in our database for station/object W4ZHA. If no packets are shown the sender has not sent any weather packets the latest 10 day(s).
| Time | Temp. | Humidity | Pressure | Rain* | Wind** | Luminosity | Snow |
|---|---|---|---|---|---|---|---|
| 1778076248 | 18.33° C | 98% | 1015.1 hPa | 18.03 mm | - | 3 W/m² | - |
| 1778075946 | 18.33° C | 97% | 1015.1 hPa | 8.89 mm | - | 5 W/m² | - |
| 1778075643 | 18.33° C | 97% | 1014.4 hPa | 7.11 mm | - | 4 W/m² | - |
| 1778075338 | 18.33° C | 97% | 1014.4 hPa | 5.33 mm | - | 5 W/m² | - |
| 1778075035 | 18.33° C | 96% | 1014.4 hPa | 10.92 mm | - | 6 W/m² | - |
| 1778074732 | 18.33° C | 96% | 1014.4 hPa | 8.89 mm | - | 4 W/m² | - |
| 1778074428 | 18.33° C | 94% | 1014.1 hPa | 5.33 mm | - | 3 W/m² | - |
| 1778074125 | 18.33° C | 93% | 1014.1 hPa | 7.11 mm | - | 3 W/m² | - |
| 1778073822 | 18.33° C | 91% | 1014.1 hPa | 5.33 mm | - | 4 W/m² | - |
| 1778073521 | 18.33° C | 89% | 1013.8 hPa | 1.78 mm | - | 10 W/m² | - |
| 1778073216 | 18.33° C | 87% | 1013.8 hPa | 1.78 mm | - | 2 W/m² | - |
| 1778072914 | 18.33° C | 82% | 1013.4 hPa | 1.78 mm | - | 6 W/m² | - |
| 1778072610 | 18.33° C | 80% | 1013 hPa | 1.78 mm | - | 5 W/m² | - |
| 1778072308 | 18.33° C | 79% | 1013.4 hPa | 1.78 mm | - | 0 W/m² | - |
| 1778072006 | 18.33° C | 78% | 1013 hPa | 5.33 mm | - | 1 W/m² | - |
| 1778071705 | 18.33° C | 78% | 1013.4 hPa | 3.56 mm | - | 1 W/m² | - |
| 1778071401 | 18.89° C | 77% | 1013 hPa | 1.78 mm | - | 0 W/m² | - |
| 1778071099 | 18.89° C | 77% | 1012.7 hPa | 0 mm | - | 1 W/m² | - |
| 1778070797 | 18.89° C | 77% | 1012.7 hPa | 0 mm | - | 0 W/m² | - |
| 1778070494 | 18.89° C | 77% | 1012.3 hPa | 0 mm | - | 0 W/m² | - |
| 1778070191 | 18.33° C | 77% | 1012.3 hPa | 0 mm | - | 0 W/m² | - |
| 1778069889 | 18.33° C | 77% | 1012.7 hPa | 0 mm | - | 0 W/m² | - |
| 1778069585 | 18.89° C | 77% | 1012.3 hPa | 1.78 mm | - | 2 W/m² | - |
| 1778069283 | 18.89° C | 76% | 1012.3 hPa | 1.78 mm | - | 0 W/m² | - |
| 1778068980 | 18.89° C | 76% | 1012 hPa | 0 mm | - | 1 W/m² | - |
* Rain latest hour (hover to see other rain measurements)
** Current wind speed in m/s (hover to see current wind gust speed)